This is the latest recevied weather packets stored in our database for station/object KT5AL. If no packets are shown the sender has not sent any weather packets the latest 1 day(s).
| Time | Temp. | Humidity | Pressure | Rain* | Wind** | Luminosity | Snow |
|---|---|---|---|---|---|---|---|
| 1836274680 | 25.56° C | 72% | 1015.1 hPa | 0 mm | 1.79 m/s, 157° | - | - |
| 1836274529 | 25.56° C | 72% | 1015.1 hPa | 0 mm | 2.24 m/s, 157° | - | - |
| 1836274378 | 25.56° C | 72% | 1015.1 hPa | 0 mm | 1.79 m/s, 157° | - | - |
| 1836274226 | 25.56° C | 72% | 1015.1 hPa | 0 mm | 2.24 m/s, 157° | - | - |
| 1836274082 | 25.56° C | 72% | 1015.4 hPa | 0 mm | 1.79 m/s, 157° | - | - |
| 1778060407 | 12.22° C | 86% | 1014.4 hPa | 0 mm | 3.58 m/s, 337° | - | - |
| 1778060106 | 12.22° C | 86% | 1014.1 hPa | 0 mm | 3.58 m/s, 315° | - | - |
| 1778059807 | 12.22° C | 86% | 1014.1 hPa | 0 mm | 4.47 m/s, 337° | - | - |
| 1778059505 | 12.78° C | 87% | 1013.8 hPa | 0 mm | 3.58 m/s, 337° | - | - |
| 1778059208 | 12.78° C | 87% | 1013.8 hPa | 0 mm | 4.02 m/s, 360° | - | - |
| 1778058905 | 12.78° C | 88% | 1013.8 hPa | 0 mm | 3.13 m/s, 337° | - | - |
| 1778058608 | 12.78° C | 87% | 1013.8 hPa | 0 mm | 3.58 m/s, 337° | - | - |
| 1778058304 | 12.78° C | 87% | 1013.8 hPa | 0 mm | 2.68 m/s, 337° | - | - |
| 1778058005 | 12.78° C | 86% | 1013.8 hPa | 0 mm | 4.02 m/s, 337° | - | - |
| 1778057708 | 12.78° C | 85% | 1013.4 hPa | 0 mm | 4.02 m/s, 337° | - | - |
| 1778057405 | 12.78° C | 85% | 1013.4 hPa | 0 mm | 4.02 m/s, 22° | - | - |
| 1778057107 | 12.78° C | 85% | 1013.4 hPa | 0 mm | 4.02 m/s, 360° | - | - |
| 1778056804 | 12.78° C | 86% | 1013.4 hPa | 0 mm | 3.13 m/s, 337° | - | - |
| 1778056507 | 12.78° C | 86% | 1013.4 hPa | 0 mm | 4.02 m/s, 337° | - | - |
| 1778056205 | 12.78° C | 87% | 1013.4 hPa | 0 mm | 3.13 m/s, 337° | - | - |
| 1778055907 | 12.78° C | 87% | 1013.4 hPa | 0 mm | 4.02 m/s, 337° | - | - |
| 1778055604 | 12.78° C | 87% | 1013.4 hPa | 0 mm | 4.02 m/s, 360° | - | - |
| 1778055308 | 12.78° C | 86% | 1013.4 hPa | 0 mm | 5.36 m/s, 337° | - | - |
| 1778055005 | 12.78° C | 86% | 1013.4 hPa | 0 mm | 3.13 m/s, 360° | - | - |
| 1778054735 | 12.78° C | 87% | 1013.4 hPa | 0 mm | 2.68 m/s, 337° | - | - |
* Rain latest hour (hover to see other rain measurements)
** Current wind speed in m/s (hover to see current wind gust speed)